Location: Columbia
(38.9520°N, 92.3340°W)
Time: 12:53:41
(UTC-05:00)

SJ-11-01 - Visible Passes

Search period start: 30 September 2014 00:00
Search period end: 10 October 2014 00:00
Orbit: 684 x 701 km, 98.0° (Epoch: 30 September)

Date Brightness Start Highest point End Pass type
(mag) Time Alt. Az. Time Alt. Az. Time Alt. Az.
30 Sep 5.4 20:35:12 27° NE 20:35:12 27° NE 20:38:10 10° N visible
30 Sep 6.8 22:13:54 18° NW 22:13:54 18° NW 22:15:34 10° NW visible
01 Oct 5.4 21:15:34 36° N 21:15:34 36° N 21:18:22 10° N visible
02 Oct 5.9 20:17:13 19° NE 20:17:13 19° NE 20:19:33 10° NNE visible
02 Oct 6.4 21:55:55 23° NW 21:55:55 23° NW 21:57:52 10° NNW visible
03 Oct 5.5 20:57:35 30° NNE 20:57:35 30° NNE 21:00:08 10° N visible
04 Oct 6.2 19:59:14 13° NE 19:59:14 13° NE 20:00:29 10° NE visible
04 Oct 6.2 21:37:56 25° NNW 21:37:56 25° NNW 21:39:57 10° NNW visible
05 Oct 5.8 20:39:35 23° NNE 20:39:35 23° NNE 20:41:45 10° N visible
05 Oct 7.2 22:18:17 13° NW 22:18:17 13° NW 22:18:57 10° NW visible
06 Oct 6.0 21:19:56 25° N 21:19:56 25° N 21:21:52 10° N visible
07 Oct 6.1 20:21:36 17° NE 20:21:36 17° NE 20:23:10 10° NNE visible
07 Oct 6.9 22:00:17 16° NW 22:00:17 16° NW 22:01:17 10° NNW visible
08 Oct 6.0 21:01:56 22° N 21:01:56 22° N 21:03:40 10° N visible
09 Oct 6.4 20:03:36 12° NE 20:03:36 12° NE 20:04:14 10° NNE visible
09 Oct 6.7 21:42:17 17° NNW 21:42:17 17° NNW 21:43:24 10° NNW visible
